AirNav   TITAN Aviation Fuels
 
 640 users online  

55OL Higley Field Airport
Guthrie, Oklahoma, USA

GOING TO GUTHRIE?


FAA INFORMATION EFFECTIVE 16 JUNE 2022

Location

FAA Identifier: 55OL
Lat/Long: 35-46-49.5500N 097-34-06.2100W
35-46.825833N 097-34.103500W
35.7804306,-97.5683917
(estimated)
Elevation: 1080 ft. / 329 m (estimated)
From city: 10 miles SW of GUTHRIE, OK
Time zone: UTC -5 (UTC -6 during Standard Time)
Zip code: 73003

Airport Operations

Airport use: Private use. Permission required prior to landing
Activation date: 04/2019
Control tower: no
ARTCC: FORT WORTH CENTER
FSS: MC ALESTER FLIGHT SERVICE STATION
Attendance: 
Segmented circle: no

Airport Communications

WX ASOS at GOK (9 nm NE): 133.975 (405-282-0478)
WX AWOS-3 at HSD (13 nm SW): 120.975 (405-283-9848)
WX ASOS at PWA (15 nm S): PHONE 405-798-2013

Airport Services

Runway Information

Runway 17/35

Dimensions: 2600 x 90 ft. / 792 x 27 m
Surface: turf, in fair condition
RUNWAY 17  RUNWAY 35
Traffic pattern: rightright

Airport Ownership and Management from official FAA records

Ownership: Privately-owned
Owner: RADIAL ENGINES LTD
11701 W FORREST HILLS RD
GUTHRIE, OK 73044
Phone 405-433-2263
Manager: RADIAL ENGINES LTD
11701 W FORREST HILLS RD
GUTHRIE, OK 73044
Phone 405-433-2263

Airport Operational Statistics

Aircraft based on the field: 1
Single engine airplanes: 1
    

Additional Remarks

OWNER DESIRES CHARTING.

Instrument Procedures

There are no published instrument procedures at 55OL.

Some nearby airports with instrument procedures:

KGOK - Guthrie/Edmond Regional Airport (9 nm NE)
KHSD - Sundance Airport (13 nm SW)
KPWA - Wiley Post Airport (15 nm S)
KRCE - Clarence E Page Municipal Airport (22 nm SW)
KOKC - Will Rogers World Airport (23 nm S)
 
Loc | Ops | Rwys | IFR | FBO | Links
Com | Nav | Svcs | Stats | Notes
Aerial photo
No photo
 
Airport distance calculator
Flying to Higley Field Airport? Find the distance to fly.

From to 55OL

Sunrise and sunset
Times for 26-Jun-2022
 Local
(UTC-5)
 Zulu
(UTC)
Morning civil twilight05:4710:47
Sunrise06:1711:17
Sunset20:4901:49
Evening civil twilight21:1902:19

Current date and time
Zulu (UTC)  27-Jun-2022 03:55:25
Local (UTC-5)  26-Jun-2022 22:55:25
 
METAR
KGOK 
9nm NE 
270253Z AUTO 04004KT 10SM CLR 22/11 A3028 RMK AO2 SLP248 T02220106 53017 $
KHSD 
13nm SW 
270335Z AUTO 04009KT 10SM CLR 23/10 A3029 RMK A01
KPWA 
15nm S 
270253Z 04012KT 10SM CLR 24/10 A3027 RMK AO2 SLP236 T02440100 53019
TAF
KOKC 
24nm S 
261739Z 2618/2718 03014G21KT P6SM SCT250 FM270100 01011KT P6SM SCT250
KTIK 
24nm SE 
270100Z 2701/2807 03009KT 9999 FEW090 QNH3021INS BECMG 2714/2715 06012G18KT 9999 SCT090 QNH3019INS BECMG 2805/2806 VRB06KT 9999 SCT090 QNH3024INS TX28/2722Z TN17/2712Z
NOTAMs
Click for the latest NOTAMs
NOTAMs are issued by the DoD/FAA and will open in a separate window not controlled by AirNav.

 

 
 

Would you like to see your business listed on this page?

 If your business provides an interesting product or service to pilots, flight crews, aircraft, or users of the Higley Field Airport, you should consider listing it here.  To start the listing process, click on the button below
 
Add a business
 

Other Pages about Higley Field Airport

Update a link
 
Copyright © AirNav, LLC. All rights reserved. Privacy Policy  Contact